Weather Service Report


168 
ASUS44 KFWD 281615
RWRTX 
NORTH TEXAS HOURLY WEATHER ROUNDUP
NATIONAL WEATHER SERVICE FORT WORTH TX
1100 AM CDT TUE JUL 28 2015

NOTE: "FAIR" INDICATES FEW OR NO CLOUDS BELOW 12,000 FEET WITH NO
SIGNIFICANT WEATHER AND/OR OBSTRUCTIONS TO VISIBILITY.

TXZ118-119-281700-
DALLAS/FORT WORTH METROPLEX
  
CITY           SKY/WX    TMP DP  RH WIND       PRES   REMARKS
DFW AIRPORT    MOSUNNY   90  68  48 S16       29.96S HX  94           
DALLAS LOVE    SUNNY     90  68  48 SW8       29.96F HX  94           
FTW MEACHAM    SUNNY     90  70  51 S12       29.96F HX  95           
DAL-EXECUTIVE  SUNNY     88  67  49 S10G21    29.96F HX  91           
FTW-ALLIANCE   MOSUNNY   89  69  51 S10G18    29.96F HX  93           
FTW-NAS-JRB    MOSUNNY   92  72  51 S15       29.96F HX  99           
FTW-SPINKS     SUNNY     90  70  51 S9        29.98F HX  95           
ARLINGTON      SUNNY     89  69  51 S8        29.96F HX  93           
GRAND PRAIRIE  SUNNY     88  72  58 S10       29.98F HX  94           
ADDISON        SUNNY     90  64  43 S12G20    29.97F HX  91           
MESQUITE       SUNNY     90  64  43 S13       29.98F HX  91           
LANCASTER      SUNNY     89  65  44 S13G20    29.98F HX  90           
$$

TXZ091>094-102>105-117-120-121-131>134-281700-
NORTH CENTRAL TEXAS
  
CITY           SKY/WX    TMP DP  RH WIND       PRES   REMARKS
SHRMAN/DENISON SUNNY     91  67  45 S13       29.98R HX  94           
GAINESVILLE    SUNNY     89  65  44 S14       29.98S HX  91           
BOWIE          SUNNY     88  65  47 S14       29.97S                  
DECATUR        SUNNY     87  65  48 S13       29.97F                  
DENTON         SUNNY     90  68  48 SW15G23   29.96F HX  94           
MCKINNEY       SUNNY     91  65  41 S12       29.97S HX  93           
GREENVILLE     SUNNY     91  63  38 S9        29.98S HX  92           
ROCKWALL       SUNNY     88  68  50 SW13G21   29.97S HX  91           
TERRELL        SUNNY     90  68  48 S13G20    29.98F HX  94           
WAXAHACHIE     SUNNY     89  69  52 S13G18    29.99F HX  93           
CLEBURNE       SUNNY     88  73  62 S13       29.99F HX  96           
GRANBURY       SUNNY     89  69  50 S10G18    29.98F HX  93           
$$

TXZ083>090-098>101-113>116-127>130-139>142-154-155-281700-
WESTERN NORTH TEXAS
  
CITY           SKY/WX    TMP DP  RH WIND       PRES   REMARKS
WICHITA FALLS  SUNNY     90  69  50 S17       29.93S HX  94           
WF-KICKAPOO    SUNNY     92  66  41 S16       29.94F HX  95           
VERNON         SUNNY     91  61  36 SW16      29.93S HX  91           
ABILENE        SUNNY     87  70  56 S12       29.98F HX  92           
ABILENE-DYESS  SUNNY     88  72  58 S14       29.96F HX  94           
BRECKENRIDGE   SUNNY     88  67  50 S9        29.96F HX  91           
GRAHAM         SUNNY     89  67  48 S9        29.94F HX  92           
MINERAL WELLS  SUNNY     87  71  58 S10       29.95F HX  93           
STEPHENVILLE   SUNNY     85  69  58 S8        30.01F                  
COMANCHE       SUNNY     85  72  65 SW9       29.99F HX  90           
BROWNWOOD      SUNNY     84  72  65 S9G16     29.99F                  
COLEMAN        SUNNY     85  72  65 S7        30.00F HX  91           
BRADY          SUNNY     88  70  55 S8        30.00F HX  92           
$$

TXZ143>147-156>162-174-175-281700-
CENTRAL TEXAS
  
CITY           SKY/WX    TMP DP  RH WIND       PRES   REMARKS
WACO           SUNNY     88  71  57 S13       29.98F HX  94           
WACO-MCGREGOR  SUNNY     88  70  55 S16       29.99F HX  92           
HILLSBORO      SUNNY     87  68  52 S14       29.98F HX  91           
CORSICANA      SUNNY     89  69  51 S8        30.00F HX  93           
MEXIA          SUNNY    N/A N/A N/A SE16      29.98F                  
HEARNE         SUNNY     88  73  61 S9        30.00S HX  96           
CAMERON        SUNNY     87  74  64 S9        29.99S HX  95           
TEMPLE         SUNNY     88  70  55 S17       29.98F HX  92           
KILLEEN        MOSUNNY   86  70  60 S14       29.99F HX  90           
KILLEEN-SKYLRK MOSUNNY   88  70  55 S13G21    29.98F HX  92           
FORT HOOD      PTSUNNY   87  71  57 S14       29.98F HX  93           
GATESVILLE     SUNNY     88  70  55 S17G24    30.01S HX  92           
HAMILTON       SUNNY     87  68  52 SW13G18   30.01S HX  90           
LAMPASAS       MOSUNNY   84  71  64 S12       30.00S                  
$$

TXZ095>097-106>112-122>126-135>138-148>153-164>167-281700-
EAST TEXAS
  
CITY           SKY/WX    TMP DP  RH WIND       PRES   REMARKS
PARIS          SUNNY     90  72  55 SW9       29.98S HX  96           
SULPHUR SPRNGS SUNNY     91  65  42 SW10G16   30.00F HX  93           
MOUNT PLEASANT SUNNY     92  68  44 SW6       30.00S HX  96           
GILMER         SUNNY     88  70  55 S5        29.99S HX  93           
MINEOLA        SUNNY     90  70  51 S9        30.00S HX  95           
TYLER          SUNNY     90  71  53 SW10      30.00S HX  96           
LONGVIEW       SUNNY     90  72  55 S6        29.99F HX  97           
MARSHALL       SUNNY     92  75  57 SW7       30.02S HX 104           
ATHENS         SUNNY     86  70  58 S6        29.99S HX  90           
PALESTINE      SUNNY     87  72  60 SW9       30.01F HX  94           
JACKSONVILLE   SUNNY     87  72  60 SW6       30.03F HX  94           
HENDERSON      SUNNY     89  68  49 SW8       30.01F HX  92           
CENTER         FAIR      90  72  54 S7        30.01S HX  97           
NACOGDOCHES    SUNNY     88  73  62 S9        30.01S HX  96           
LUFKIN         MOSUNNY   87  74  64 SW5       30.01F HX  95           
$$

SUPPLEMENTAL OBSERVATIONS (CENTRAL)
  
CITY           SKY/WX    TMP DP  RH WIND       PRES   REMARKS
LAKE TEXOMA      N/A     90  63  40 SW13        N/A  HX  90           
CADDO GRASSLND   N/A     91  70  49 S12         N/A  HX  97           
PAT MAYSE LAKE   N/A     88  72  58 S10         N/A  HX  94           
ATHENS           N/A     90  70  51 S7          N/A  HX  95           
LAKE LIMESTONE   N/A     90  70  51 S7          N/A  HX  95           
MCGREGOR         N/A     88  70  55 S13         N/A  HX  92           
$$

SUPPLEMENTAL OBSERVATIONS (WEST)
  
CITY           SKY/WX    TMP DP  RH WIND       PRES   REMARKS
MILLERS CREEK    N/A     91  66  43 S13         N/A  HX  94           
LBJ GRASSLAND    N/A     90  70  51 S8          N/A  HX  95           
GRANBURY         N/A     90  68  48 S14         N/A  HX  93           
COMANCHE         N/A     86  72  62 S5G13       N/A  HX  92           
HAMBY            N/A     90  70  51 SW15        N/A  HX  95           
IVIE RESERVOIR   N/A     90  70  51 S9          N/A  HX  95           
COLORADO BEND    N/A     84  66  54 SW10G18     N/A                   
$$

SUPPLEMENTAL OBSERVATIONS (EAST)
  
CITY           SKY/WX    TMP DP  RH WIND       PRES   REMARKS
CLARKSVILLE      N/A     91  70  49 S8          N/A  HX  97           
TEXARKANA        N/A     91  73  55 W5          N/A  HX 100           
LINDEN           N/A     93  72  49 W3          N/A  HX 100           
CADDO LAKE       N/A     93  72  49 SW3         N/A  HX 100           
GILMER           N/A     90  68  48 S7          N/A  HX  93           
HENDERSON        N/A     90  70  51 S7          N/A  HX  95           
LUFKIN           N/A     90  73  58 MISG        N/A  HX  98           
N SABINE NF      N/A     93  73  52 MISG        N/A  HX 102           
S SABINE NF      N/A     91  72  52 CALM        N/A  HX  98           
$$

SUPPLEMENTAL OBSERVATIONS ARE A COLLECTION OF AUTOMATED INSTRUMENTS
THAT ARE MAINTAINED BY A VARIETY OF FEDERAL AND STATE AGENCIES. 
CERTAIN ELEMENTS...SUCH AS HUMIDITY VALUES AND SUSTAINED WIND 
SPEEDS...MAY BE APPROXIMATED.


Return to Home page


Western Regional Climate Center, wrcc@dri.edu